period_start,C,m1,H,J0,J1,J2,J3,J4,J5,JA,JB,JC,JD,JJ,JK,JN,#
2017-04-30 00:04:54,-0.00,4.39,0.00,23.70,26.93,30.37,14.42,49.68,1012.37,2028.76,2092.71,2115.85,2394.76,599.95,592.02,57.16,0000 0000 0000 0000 000000
2017-04-30 00:09:56,0.09,4.40,0.00,23.84,26.96,30.42,14.41,49.62,1012.46,2028.75,2091.78,2115.13,2393.98,600.18,591.94,57.21,0000 0000 0000 0000 000000
2017-04-30 00:14:57,0.00,4.40,0.00,23.95,26.97,30.46,14.47,49.58,1012.54,2028.55,2091.41,2114.96,2393.63,599.91,591.66,57.27,0000 0000 0000 0000 000000
2017-04-30 00:19:58,0.04,4.40,0.00,23.99,27.00,30.48,14.41,49.65,1012.47,2028.25,2090.70,2114.36,2393.03,599.96,591.55,57.32,0000 0000 0000 0000 000000
2017-04-30 00:24:59,0.02,4.40,0.00,24.12,27.02,30.49,14.33,49.52,1012.33,2028.15,2090.16,2114.00,2392.69,599.63,591.10,57.37,0000 0000 0000 0000 000000
2017-04-30 00:30:01,0.07,4.40,0.00,24.16,27.03,30.49,14.39,49.55,1012.25,2028.07,2089.47,2113.56,2391.98,599.95,591.15,57.42,0000 0000 0000 0000 000000
2017-04-30 00:35:02,0.02,4.40,0.00,24.05,27.05,30.49,14.35,49.56,1012.23,2028.05,2088.90,2113.03,2391.72,599.98,591.34,57.47,0000 0000 0000 0000 000000
2017-04-30 00:40:04,0.02,4.41,0.00,23.75,27.05,30.52,14.43,49.70,1012.23,2028.04,2088.73,2112.99,2391.22,600.12,592.07,57.52,0000 0000 0000 0000 000000
2017-04-30 00:45:05,0.07,4.41,0.00,23.57,27.05,30.53,14.46,49.88,1012.22,2028.01,2087.98,2112.31,2390.86,600.01,592.34,57.57,0000 0000 0000 0000 000000
2017-04-30 00:50:06,0.03,4.41,0.00,23.59,27.05,30.61,14.44,49.71,1012.22,2028.01,2087.63,2112.00,2390.35,599.87,592.08,57.62,0000 0000 0000 0000 000000
2017-04-30 00:55:08,0.02,4.41,0.00,23.79,27.05,30.46,14.41,49.73,1012.22,2028.00,2087.19,2111.96,2390.02,600.07,591.94,57.67,0000 0000 0000 0000 000000
2017-04-30 01:00:09,0.04,4.41,0.00,23.65,27.06,30.33,14.51,49.76,1012.22,2028.00,2086.96,2111.27,2389.95,600.45,592.61,57.72,0000 0000 0000 0000 000000
2017-04-30 01:05:10,0.05,4.42,0.00,23.95,27.07,30.36,14.39,49.70,1012.22,2028.00,2086.32,2111.01,2389.27,600.06,591.59,57.77,0000 0000 0000 0000 000000
2017-04-30 01:10:12,0.00,4.42,0.00,24.09,27.08,30.39,14.31,49.49,1012.22,2028.00,2085.98,2110.99,2389.00,599.75,591.13,57.82,0000 0000 0000 0000 000000
2017-04-30 01:15:13,0.09,4.42,0.00,24.11,27.10,30.45,14.37,49.60,1012.22,2028.00,2085.17,2110.46,2388.43,599.93,591.15,57.87,0000 0000 0000 0000 000000
2017-04-30 01:20:15,0.01,4.42,0.00,24.16,27.10,30.48,14.37,49.54,1012.22,2028.00,2084.94,2110.01,2388.01,600.13,591.38,57.92,0000 0000 0000 0000 000000
2017-04-30 01:25:16,0.03,4.42,0.00,24.14,27.11,30.48,14.36,49.61,1012.22,2028.00,2084.36,2109.99,2387.94,599.90,591.13,57.97,0000 0000 0000 0000 000000
2017-04-30 01:30:17,0.06,4.43,0.00,24.10,27.12,30.48,14.45,49.63,1012.22,2027.99,2083.87,2109.57,2387.24,600.36,591.63,58.02,0000 0000 0000 0000 000000
2017-04-30 01:35:18,0.01,4.43,0.00,24.19,27.12,30.47,14.37,49.54,1012.22,2027.99,2083.42,2109.03,2386.98,599.95,591.03,58.07,0000 0000 0000 0000 000000
2017-04-30 01:40:20,0.02,4.43,0.00,24.25,27.12,30.49,14.37,49.50,1012.17,2027.98,2083.09,2109.00,2386.94,599.71,590.72,58.13,0000 0000 0000 0000 000000
2017-04-30 01:45:21,0.06,4.43,0.00,24.26,27.14,30.47,14.36,49.57,1011.91,2027.98,2082.75,2108.70,2386.25,599.91,590.59,58.18,0000 0000 0000 0000 000000
2017-04-30 01:50:22,0.03,4.44,0.00,24.31,27.15,30.47,14.30,49.47,1011.83,2027.97,2082.08,2108.07,2385.99,599.72,590.34,58.23,0000 0000 0000 0000 000000
2017-04-30 01:55:24,0.02,4.44,0.00,24.35,27.15,30.47,14.36,49.55,1011.79,2027.99,2081.78,2108.00,2385.57,600.09,590.64,58.28,0000 0000 0000 0000 000000
2017-04-30 02:00:25,0.04,4.44,0.00,24.34,27.15,30.44,14.29,49.58,1011.79,2027.97,2081.09,2107.89,2385.03,599.88,590.62,58.33,0000 0000 0000 0000 000000
2017-04-30 02:05:26,0.03,4.44,0.00,24.34,27.15,30.45,14.44,49.50,1011.77,2027.98,2080.97,2107.23,2384.98,600.04,590.56,58.38,0000 0000 0000 0000 000000
2017-04-30 02:10:27,0.05,4.44,0.00,24.35,27.15,30.43,14.39,49.54,1011.75,2027.97,2080.19,2107.00,2384.44,600.05,590.57,58.43,0000 0000 0000 0000 000000
2017-04-30 02:15:28,0.02,4.44,0.00,24.39,27.15,30.40,14.32,49.41,1011.75,2027.96,2079.96,2106.86,2384.01,600.01,590.44,58.48,0000 0000 0000 0000 000000
2017-04-30 02:20:29,0.06,4.45,0.00,24.32,27.15,30.39,14.33,49.52,1011.74,2027.92,2079.32,2106.20,2383.91,599.86,590.36,58.53,0000 0000 0000 0000 000000
2017-04-30 02:25:31,0.02,4.45,0.00,24.37,27.15,30.37,14.39,49.53,1011.76,2027.91,2078.99,2106.00,2383.27,599.98,590.45,58.58,0000 0000 0000 0000 000000
2017-04-30 02:30:32,0.04,4.45,0.00,24.42,27.15,30.36,14.28,49.47,1011.76,2027.91,2078.43,2105.97,2383.00,599.79,590.09,58.63,0000 0000 0000 0000 000000
2017-04-30 02:35:33,0.05,4.45,0.00,24.42,27.15,30.38,14.38,49.52,1011.76,2027.95,2078.01,2105.37,2382.78,600.10,590.39,58.68,0000 0000 0000 0000 000000
2017-04-30 02:40:34,0.04,4.45,0.00,24.39,27.15,30.34,14.32,49.50,1011.75,2027.91,2077.58,2105.00,2382.16,600.00,590.38,58.73,0000 0000 0000 0000 000000
2017-04-30 02:45:35,0.01,4.46,0.00,24.41,27.15,30.33,14.44,49.50,1011.74,2027.93,2077.02,2104.98,2382.00,600.13,590.35,58.78,0000 0000 0000 0000 000000
2017-04-30 02:50:37,0.04,4.46,0.00,24.38,27.15,30.34,14.36,49.55,1011.73,2027.95,2076.82,2104.70,2381.85,600.10,590.54,58.83,0000 0000 0000 0000 000000
2017-04-30 02:55:38,0.06,4.46,0.00,24.38,27.15,30.33,14.30,49.42,1011.73,2027.93,2076.09,2104.08,2381.13,599.73,590.13,58.88,0000 0000 0000 0000 000000
2017-04-30 03:00:39,0.01,4.46,0.00,24.38,27.15,30.33,14.38,49.56,1011.73,2027.95,2075.94,2104.00,2381.00,600.11,590.45,58.93,0000 0000 0000 0000 000000
2017-04-30 03:05:41,0.04,4.46,0.00,24.39,27.15,30.34,14.36,49.52,1011.73,2027.95,2075.23,2103.88,2380.70,600.23,590.61,58.98,0000 0000 0000 0000 000000
2017-04-30 03:10:42,0.04,4.47,0.00,24.29,27.15,30.32,14.41,49.52,1011.63,2027.91,2074.98,2103.17,2380.04,600.09,590.73,59.03,0000 0000 0000 0000 000000
2017-04-30 03:15:43,0.03,4.47,0.00,24.33,27.14,30.31,14.31,49.63,1011.40,2027.90,2074.33,2103.00,2379.98,599.68,590.03,59.09,0000 0000 0000 0000 000000
2017-04-30 03:20:45,0.03,4.47,0.00,24.38,27.14,30.33,14.27,49.52,1011.42,2027.83,2073.98,2102.82,2379.50,600.28,590.50,59.14,0000 0000 0000 0000 000000
2017-04-30 03:25:46,0.05,4.47,0.00,24.27,27.14,30.34,14.32,49.57,1011.38,2027.71,2073.34,2102.13,2379.01,599.97,590.39,59.19,0000 0000 0000 0000 000000
2017-04-30 03:30:47,0.03,4.47,0.00,24.31,27.14,30.31,14.34,49.48,1011.27,2027.88,2073.01,2102.00,2378.98,600.26,590.62,59.24,0000 0000 0000 0000 000000
2017-04-30 03:35:48,0.03,4.47,0.00,24.25,27.13,30.30,14.35,49.54,1011.27,2027.78,2072.73,2101.93,2378.34,599.90,590.27,59.29,0000 0000 0000 0000 000000
2017-04-30 03:40:50,0.05,4.48,0.00,24.35,27.13,30.31,14.36,49.49,1011.27,2027.71,2072.03,2101.21,2378.00,600.10,590.31,59.34,0000 0000 0000 0000 000000
2017-04-30 03:45:51,0.02,4.48,0.00,24.27,27.13,30.32,14.26,49.44,1011.29,2027.89,2071.88,2101.00,2377.94,599.92,590.24,59.39,0000 0000 0000 0000 000000
2017-04-30 03:50:52,0.06,4.48,0.00,24.22,27.13,30.31,14.38,49.63,1011.34,2027.92,2071.07,2100.98,2377.19,599.86,590.41,59.44,0000 0000 0000 0000 000000
2017-04-30 03:55:54,0.04,4.48,0.00,24.29,27.13,30.31,14.30,49.59,1011.37,2027.89,2070.85,2100.46,2377.00,599.98,590.38,59.49,0000 0000 0000 0000 000000
2017-04-30 04:00:55,0.04,4.49,0.00,24.21,27.13,30.30,14.36,49.58,1011.27,2027.96,2070.15,2100.04,2376.89,600.08,590.62,59.54,0000 0000 0000 0000 000000
2017-04-30 04:05:56,0.02,4.49,0.00,24.21,27.12,30.29,14.33,49.62,1011.25,2027.95,2069.96,2100.00,2376.20,600.03,590.42,59.59,0000 0000 0000 0000 000000
2017-04-30 04:10:57,0.02,4.49,0.00,24.29,27.12,30.27,14.36,49.59,1011.25,2027.96,2069.56,2099.96,2376.00,600.01,590.32,59.64,0000 0000 0000 0000 000000
2017-04-30 04:15:58,0.04,4.49,0.00,24.25,27.12,30.27,14.37,49.56,1011.25,2027.96,2069.03,2099.36,2375.94,599.93,590.40,59.69,0000 0000 0000 0000 000000
2017-04-30 04:20:59,0.03,4.49,0.00,24.23,27.12,30.32,14.31,49.51,1011.24,2027.98,2068.86,2099.02,2375.41,599.85,590.33,59.74,0000 0000 0000 0000 000000
2017-04-30 04:26:01,0.02,4.50,0.00,24.18,27.12,30.32,14.37,49.71,1011.24,2027.96,2068.23,2099.00,2375.01,600.21,590.66,59.79,0000 0000 0000 0000 000000
2017-04-30 04:31:02,0.02,4.50,0.00,24.26,27.12,30.28,14.34,49.59,1011.22,2027.95,2067.97,2098.72,2374.97,600.10,590.47,59.84,0000 0000 0000 0000 000000
2017-04-30 04:36:03,0.07,4.50,0.00,24.19,27.12,30.30,14.43,49.65,1011.17,2027.96,2067.40,2098.10,2374.35,600.17,590.70,59.89,0000 0000 0000 0000 000000
2017-04-30 04:41:05,0.01,4.50,0.00,24.19,27.12,30.31,14.32,49.64,1011.22,2027.96,2067.01,2098.00,2374.01,599.94,590.44,59.95,0000 0000 0000 0000 000000
2017-04-30 04:46:06,-0.00,4.50,0.00,24.09,27.12,30.28,14.34,49.75,1011.24,2027.97,2066.97,2098.00,2374.00,599.98,590.70,60.00,0000 0000 0000 0000 000000
2017-04-30 04:51:08,0.03,4.50,0.00,24.22,27.11,30.28,14.34,49.60,1011.22,2027.98,2066.47,2097.88,2373.95,599.93,590.34,60.05,0000 0000 0000 0000 000000
2017-04-30 04:56:09,0.05,4.51,0.00,24.24,27.10,30.28,14.39,49.63,1011.06,2027.98,2066.02,2097.29,2373.46,599.94,590.10,60.10,0000 0000 0000 0000 000000
2017-04-30 05:01:10,0.02,2.10,0.00,24.12,27.12,30.30,12.76,43.75,1010.91,2029.60,2836.89,2635.56,3005.65,538.02,529.53,0.02,0000 0000 0000 0000 000002
2017-04-30 05:06:11,0.01,0.00,0.00,24.01,27.11,30.26,14.40,48.93,1011.17,2031.02,3507.68,3105.54,3559.05,600.06,590.83,0.04,0000 0000 0000 0000 000000
2017-04-30 05:11:13,0.01,0.00,0.00,24.16,27.10,30.25,14.33,48.92,1011.15,2031.01,3506.03,3104.96,3558.14,599.86,590.35,0.09,0000 0000 0000 0000 000000
2017-04-30 05:16:14,0.02,0.00,0.00,24.26,27.10,30.25,14.31,48.81,1011.18,2031.01,3504.81,3104.18,3557.29,599.78,590.09,0.14,0000 0000 0000 0000 000000
2017-04-30 05:21:16,0.03,0.00,0.00,24.13,27.09,30.27,14.33,48.99,1011.12,2031.00,3503.79,3103.73,3556.53,599.87,590.44,0.19,0000 0000 0000 0000 000000
2017-04-30 05:26:17,0.03,0.01,0.00,24.04,27.07,30.27,14.38,49.05,1011.11,2031.00,3502.87,3103.03,3555.93,600.00,590.73,0.24,0000 0000 0000 0000 000000
2017-04-30 05:31:18,0.04,0.01,0.00,24.13,27.07,30.25,14.32,48.88,1011.04,2031.00,3501.91,3102.58,3555.09,599.38,590.07,0.29,0000 0000 0000 0000 000000
2017-04-30 05:36:19,0.03,0.01,0.00,24.18,27.07,30.24,14.34,48.79,1010.90,2031.01,3501.01,3102.01,3554.40,599.65,590.08,0.34,0000 0000 0000 0000 000000
2017-04-30 05:41:20,0.03,0.01,0.00,24.12,27.07,30.25,14.38,48.73,1010.89,2031.02,3500.12,3101.65,3553.86,600.11,590.66,0.39,0000 0000 0000 0000 000000
2017-04-30 05:46:22,0.03,0.01,0.00,24.11,27.07,30.24,14.39,48.77,1010.81,2031.01,3499.34,3101.02,3553.05,600.24,590.53,0.44,0000 0000 0000 0000 000000
2017-04-30 05:51:23,0.04,0.01,0.00,24.19,27.07,30.23,14.31,48.68,1010.78,2031.01,3498.40,3100.47,3552.38,600.14,590.32,0.49,0000 0000 0000 0000 000000
2017-04-30 05:56:24,0.02,0.02,0.00,24.18,27.07,30.26,14.33,48.67,1010.77,2031.02,3497.55,3100.00,3551.87,600.14,590.53,0.54,0000 0000 0000 0000 000000
2017-04-30 06:01:25,0.04,0.02,0.00,24.14,27.07,30.30,14.32,48.62,1010.77,2031.01,3496.64,3099.32,3551.04,599.60,589.97,0.59,0000 0000 0000 0000 000000
2017-04-30 06:06:27,0.02,0.02,0.00,24.17,27.07,30.25,14.29,48.55,1010.77,2031.00,3495.81,3098.96,3550.18,599.85,590.03,0.64,0000 0000 0000 0000 000000
2017-04-30 06:11:28,0.04,0.02,0.00,24.17,27.07,30.21,14.40,48.62,1010.77,2031.00,3494.98,3098.21,3549.73,600.05,590.38,0.69,0000 0000 0000 0000 000000
2017-04-30 06:16:29,0.02,0.02,0.00,24.16,27.07,30.20,14.39,48.53,1010.76,2031.01,3494.12,3097.98,3549.03,600.14,590.39,0.74,0000 0000 0000 0000 000000
2017-04-30 06:21:30,0.04,0.02,0.00,24.17,27.07,30.20,14.30,48.59,1010.76,2031.01,3493.40,3097.40,3548.53,599.95,590.21,0.79,0000 0000 0000 0000 000000
2017-04-30 06:26:32,0.01,0.03,0.00,24.17,27.07,30.17,14.36,48.60,1010.76,2031.00,3492.53,3096.98,3547.95,599.96,590.21,0.84,0000 0000 0000 0000 000000
2017-04-30 06:31:33,0.04,0.03,0.00,24.19,27.07,30.17,14.34,48.56,1010.76,2031.00,3491.76,3096.24,3547.15,599.58,589.76,0.89,0000 0000 0000 0000 000000
2017-04-30 06:36:34,0.01,0.03,0.00,24.19,27.06,30.18,14.27,48.48,1010.76,2031.02,3491.00,3095.99,3546.90,599.80,590.03,0.94,0000 0000 0000 0000 000000
2017-04-30 06:41:35,0.04,0.03,0.00,24.22,27.05,30.21,14.38,48.64,1010.76,2031.05,3490.26,3095.61,3546.15,600.27,590.31,0.99,0000 0000 0000 0000 000000
2017-04-30 06:46:37,0.03,0.03,0.00,24.24,27.05,30.20,14.34,48.48,1010.73,2031.10,3489.49,3095.02,3545.88,599.84,589.92,1.04,0000 0000 0000 0000 000000
2017-04-30 06:51:38,0.06,0.04,0.00,24.27,27.05,30.19,14.40,48.77,1010.68,2031.30,3488.78,3094.72,3545.11,600.01,590.02,1.09,0000 0000 0000 0000 000000
2017-04-30 06:56:40,0.01,0.04,0.00,24.26,27.05,30.17,14.33,48.48,1010.75,2031.29,3488.00,3094.05,3544.75,599.89,589.97,1.14,0000 0000 0000 0000 000000
2017-04-30 07:01:41,0.03,0.04,0.00,24.27,27.05,30.14,14.29,48.46,1010.75,2031.25,3487.16,3093.78,3544.05,599.84,589.93,1.19,0000 0000 0000 0000 000000
2017-04-30 07:06:42,0.05,0.04,0.00,24.25,27.05,30.14,14.31,48.52,1010.74,2031.36,3486.31,3093.05,3543.60,599.99,590.10,1.24,0000 0000 0000 0000 000000
2017-04-30 07:11:43,0.01,0.04,0.00,24.27,27.04,30.16,14.36,48.59,1010.74,2031.35,3485.54,3092.75,3542.99,600.00,590.05,1.29,0000 0000 0000 0000 000000
2017-04-30 07:16:45,0.04,0.04,0.00,24.27,27.03,30.17,14.34,48.57,1010.68,2031.28,3484.81,3092.05,3542.20,600.12,590.10,1.34,0000 0000 0000 0000 000000
2017-04-30 07:21:46,0.03,0.05,0.00,24.26,27.02,30.17,14.30,48.50,1010.67,2031.40,3484.03,3091.88,3541.89,600.03,590.07,1.39,0000 0000 0000 0000 000000
2017-04-30 07:26:47,0.06,0.05,0.00,24.23,27.02,30.17,14.37,48.53,1010.69,2031.49,3483.30,3091.10,3541.11,600.19,590.27,1.44,0000 0000 0000 0000 000000
2017-04-30 07:31:48,0.02,0.05,0.00,24.25,27.02,30.16,14.33,48.49,1010.67,2031.72,3482.76,3091.00,3540.90,599.91,590.08,1.49,0000 0000 0000 0000 000000
2017-04-30 07:36:49,0.03,0.05,0.00,24.27,27.02,30.18,14.30,48.44,1010.63,2031.68,3481.92,3090.40,3540.12,599.99,590.06,1.54,0000 0000 0000 0000 000000
2017-04-30 07:41:51,0.04,0.05,0.00,24.26,27.02,30.18,14.40,48.43,1010.47,2031.58,3480.84,3089.82,3539.29,600.44,590.35,1.59,0000 0000 0000 0000 000000
2017-04-30 07:46:52,0.07,0.06,0.00,24.24,27.02,30.18,14.29,48.38,1010.56,2031.81,3479.56,3089.01,3538.59,600.20,590.20,1.64,0000 0000 0000 0000 000000
2017-04-30 07:51:53,0.08,0.06,0.00,24.26,27.00,30.18,14.30,48.29,1010.50,2031.94,3477.78,3087.95,3537.45,599.96,589.94,1.69,0000 0000 0000 0000 000000
2017-04-30 07:56:54,0.06,0.07,0.00,24.25,27.00,30.18,14.23,48.33,1010.39,2031.96,3475.94,3086.91,3536.19,599.71,589.54,1.74,0000 0000 0000 0000 000000
2017-04-30 08:01:56,0.05,0.07,0.00,24.25,27.00,30.18,14.47,48.47,1010.43,2031.95,3474.74,3086.06,3535.25,600.36,590.28,1.79,0000 0000 0000 0000 000000
2017-04-30 08:06:57,0.04,0.07,0.00,24.27,27.00,30.19,14.36,48.46,1010.45,2031.96,3473.81,3085.61,3534.64,600.08,590.03,1.84,0000 0000 0000 0000 000000
2017-04-30 08:11:58,0.02,0.07,0.00,24.28,27.00,30.18,14.37,48.42,1010.36,2031.94,3472.89,3084.99,3533.96,599.97,589.77,1.89,0000 0000 0000 0000 000000
2017-04-30 08:17:00,0.04,0.07,0.00,24.28,27.00,30.18,14.35,48.48,1010.37,2031.98,3472.07,3084.41,3533.23,599.82,589.69,1.94,0000 0000 0000 0000 000000
2017-04-30 08:22:01,0.02,0.08,0.00,24.30,27.00,30.18,14.29,48.42,1010.32,2031.97,3471.35,3084.00,3532.77,599.98,589.73,2.00,0000 0000 0000 0000 000000
2017-04-30 08:27:03,0.04,0.08,0.00,24.30,27.00,30.19,14.29,48.38,1010.30,2031.97,3470.50,3083.44,3532.03,599.79,589.54,2.05,0000 0000 0000 0000 000000
2017-04-30 08:32:04,0.02,0.08,0.00,24.30,27.00,30.19,14.39,48.38,1010.30,2031.96,3469.73,3082.97,3531.44,600.38,590.12,2.10,0000 0000 0000 0000 000000
2017-04-30 08:37:05,0.03,0.08,0.00,24.27,27.00,30.17,14.36,48.52,1010.31,2031.98,3468.89,3082.25,3530.98,600.27,590.04,2.15,0000 0000 0000 0000 000000
2017-04-30 08:42:06,0.03,0.08,0.00,24.25,27.00,30.18,14.25,48.43,1010.38,2031.98,3468.03,3081.92,3530.17,599.86,589.86,2.20,0000 0000 0000 0000 000000
2017-04-30 08:47:08,0.04,0.09,0.00,24.25,27.00,30.17,14.34,48.56,1010.37,2031.98,3467.21,3081.17,3529.62,600.02,589.90,2.25,0000 0000 0000 0000 000000
2017-04-30 08:52:08,0.02,0.09,0.00,24.26,27.00,30.16,14.30,48.55,1010.46,2031.97,3466.41,3080.96,3529.00,599.91,589.93,2.30,0000 0000 0000 0000 000000
2017-04-30 08:57:10,0.04,0.09,0.00,24.25,27.00,30.16,14.36,48.54,1010.48,2031.97,3465.72,3080.23,3528.31,600.21,590.16,2.35,0000 0000 0000 0000 000000
2017-04-30 09:02:11,0.02,0.09,0.00,24.24,27.00,30.17,14.26,48.46,1010.64,2031.99,3464.90,3079.83,3527.69,600.14,590.20,2.40,0000 0000 0000 0000 000000
2017-04-30 09:07:12,0.03,0.09,0.00,24.24,27.00,30.17,14.31,48.52,1010.43,2031.99,3464.08,3079.10,3527.02,599.97,589.91,2.45,0000 0000 0000 0000 000000
2017-04-30 09:12:13,0.02,0.09,0.00,24.24,27.00,30.17,14.29,48.58,1010.47,2031.97,3463.43,3078.86,3526.46,599.73,589.64,2.50,0000 0000 0000 0000 000000
2017-04-30 09:17:15,0.03,0.10,0.00,24.25,27.00,30.17,14.37,48.56,1010.40,2031.97,3462.68,3078.12,3525.99,600.08,589.92,2.55,0000 0000 0000 0000 000000
2017-04-30 09:22:16,0.01,0.10,0.00,24.25,26.99,30.17,14.34,48.49,1010.42,2031.99,3462.01,3077.99,3525.45,599.84,589.73,2.60,0000 0000 0000 0000 000000
2017-04-30 09:27:17,0.04,0.10,0.00,24.24,26.99,30.18,14.36,48.33,1010.38,2031.97,3461.23,3077.30,3524.90,600.41,590.35,2.65,0000 0000 0000 0000 000000
2017-04-30 09:32:19,0.03,0.10,0.00,24.26,26.98,30.17,14.27,48.40,1010.54,2031.98,3460.37,3076.97,3524.07,600.18,590.17,2.70,0000 0000 0000 0000 000000
2017-04-30 09:37:20,0.03,0.10,0.00,24.25,26.98,30.16,14.39,48.52,1010.64,2031.97,3459.87,3076.28,3523.69,599.95,589.93,2.75,0000 0000 0000 0000 000000
2017-04-30 09:42:21,0.02,0.10,0.00,24.25,26.97,30.17,14.35,48.52,1010.57,2031.99,3459.06,3076.00,3523.03,600.38,590.42,2.80,0000 0000 0000 0000 000000
2017-04-30 09:47:22,0.04,0.10,0.00,24.25,26.97,30.17,14.27,48.42,1010.68,2031.99,3458.39,3075.59,3522.65,599.55,589.56,2.85,0000 0000 0000 0000 000000
2017-04-30 09:52:24,0.02,0.11,0.00,24.24,26.97,30.18,14.36,48.48,1010.71,2031.97,3457.77,3075.02,3522.02,600.06,590.17,2.90,0000 0000 0000 0000 000000
2017-04-30 09:57:25,0.03,0.11,0.00,24.22,26.97,30.17,14.32,48.44,1010.70,2031.98,3457.02,3074.80,3521.55,599.84,590.04,2.95,0000 0000 0000 0000 000000
2017-04-30 10:02:27,0.03,0.11,0.00,24.22,26.97,30.16,14.31,48.39,1010.56,2031.98,3456.28,3074.06,3521.01,599.88,589.95,3.00,0000 0000 0000 0000 000000
2017-04-30 10:07:28,0.01,0.11,0.00,24.19,26.97,30.17,14.41,48.42,1010.58,2031.98,3455.92,3073.98,3520.29,600.38,590.16,3.05,0000 0000 0000 0000 000000
2017-04-30 10:12:29,0.03,0.11,0.00,24.19,26.97,30.16,14.32,48.28,1010.66,2031.99,3455.11,3073.37,3520.00,599.92,590.12,3.10,0000 0000 0000 0000 000000
2017-04-30 10:17:30,0.02,0.11,0.00,24.21,26.96,30.16,14.30,48.32,1010.60,2031.98,3454.47,3073.00,3519.54,599.72,589.93,3.15,0000 0000 0000 0000 000000
2017-04-30 10:22:31,0.01,0.11,0.00,24.17,26.95,30.16,14.26,48.31,1010.50,2031.99,3453.98,3072.78,3519.01,599.71,589.84,3.20,0000 0000 0000 0000 000000
2017-04-30 10:27:33,0.03,0.12,0.00,24.16,26.95,30.16,14.29,48.21,1010.55,2031.99,3453.17,3072.07,3518.85,599.96,590.12,3.25,0000 0000 0000 0000 000000
2017-04-30 10:32:34,0.02,0.12,0.00,24.16,26.95,30.15,14.35,48.17,1010.75,2031.99,3452.69,3071.95,3518.07,599.97,590.26,3.30,0000 0000 0000 0000 000000
2017-04-30 10:37:35,0.03,0.12,0.00,24.15,26.94,30.15,14.45,48.27,1010.75,2031.98,3452.01,3071.21,3517.84,600.27,590.56,3.35,0000 0000 0000 0000 000000
2017-04-30 10:42:36,0.02,0.12,0.00,24.15,26.93,30.15,14.33,48.12,1010.75,2031.98,3451.34,3071.00,3517.09,599.73,590.04,3.40,0000 0000 0000 0000 000000
2017-04-30 10:47:38,0.01,0.12,0.00,24.12,26.92,30.15,14.30,48.04,1010.75,2031.99,3450.88,3070.91,3516.95,599.98,590.28,3.45,0000 0000 0000 0000 000000
2017-04-30 10:52:39,0.04,0.12,0.00,24.11,26.92,30.15,14.45,48.18,1010.75,2031.99,3450.09,3070.25,3516.21,600.09,590.30,3.50,0000 0000 0000 0000 000000
2017-04-30 10:57:40,0.01,0.12,0.00,24.07,26.91,30.13,14.41,48.17,1010.76,2031.99,3449.59,3070.00,3515.98,600.08,590.56,3.55,0000 0000 0000 0000 000000
2017-04-30 11:02:41,0.02,0.13,0.00,24.06,26.90,30.13,14.32,48.13,1010.76,2031.99,3449.00,3069.74,3515.34,599.94,590.41,3.60,0000 0000 0000 0000 000000
2017-04-30 11:07:43,0.03,0.13,0.00,24.06,26.90,30.12,14.27,48.14,1010.76,2031.99,3448.33,3069.08,3515.00,599.80,590.30,3.65,0000 0000 0000 0000 000000
2017-04-30 11:12:44,0.00,0.13,0.00,24.05,26.89,30.13,14.29,48.03,1010.75,2031.99,3447.98,3069.00,3514.80,600.21,590.65,3.70,0000 0000 0000 0000 000000
2017-04-30 11:17:45,0.03,0.13,0.00,24.03,26.87,30.12,14.33,48.26,1010.74,2031.99,3447.29,3068.74,3514.08,599.94,590.42,3.75,0000 0000 0000 0000 000000
2017-04-30 11:22:46,0.01,0.13,0.00,24.01,26.87,30.12,14.32,48.13,1010.76,2031.99,3446.94,3068.07,3513.98,599.94,590.52,3.80,0000 0000 0000 0000 000000
2017-04-30 11:27:47,0.02,0.13,0.00,24.08,26.87,30.11,14.33,48.23,1010.76,2031.99,3446.10,3068.00,3513.28,599.91,590.45,3.85,0000 0000 0000 0000 000000
2017-04-30 11:32:49,0.03,0.13,0.00,24.08,26.85,30.11,14.41,48.27,1010.76,2031.99,3445.29,3067.49,3512.99,600.16,590.74,3.90,0000 0000 0000 0000 000000
2017-04-30 11:37:50,0.02,0.13,0.00,24.03,26.85,30.10,14.25,48.19,1010.76,2031.99,3444.82,3067.01,3512.36,600.07,590.50,3.95,0000 0000 0000 0000 000000
2017-04-30 11:42:52,0.01,0.14,0.00,24.06,26.84,30.09,14.30,48.14,1010.76,2031.99,3444.05,3066.93,3512.00,599.72,590.21,4.00,0000 0000 0000 0000 000000
2017-04-30 11:47:53,0.04,0.14,0.00,24.01,26.82,30.09,14.35,48.27,1010.76,2031.99,3443.54,3066.16,3511.68,599.94,590.53,4.05,0000 0000 0000 0000 000000
2017-04-30 11:52:54,0.01,0.14,0.00,24.04,26.82,30.09,14.37,48.23,1010.76,2031.99,3442.99,3066.00,3511.03,600.21,590.86,4.10,0000 0000 0000 0000 000000
2017-04-30 11:57:56,0.02,0.14,0.00,24.11,26.81,30.08,14.33,48.19,1010.76,2032.01,3442.35,3065.86,3510.91,600.26,590.66,4.15,0000 0000 0000 0000 000000
2017-04-30 12:02:57,0.03,0.14,0.00,23.99,26.80,30.07,14.31,48.19,1010.76,2032.01,3441.93,3065.14,3510.13,599.78,590.33,4.20,0000 0000 0000 0000 000000
2017-04-30 12:07:58,0.01,0.14,0.00,23.99,26.80,30.06,14.45,48.22,1010.76,2032.01,3441.11,3064.99,3509.98,600.21,590.91,4.25,0000 0000 0000 0000 000000
2017-04-30 12:13:00,0.03,0.14,0.00,24.24,26.78,30.06,14.36,48.13,1010.76,2032.00,3440.74,3064.65,3509.38,599.92,590.00,4.30,0000 0000 0000 0000 000000
2017-04-30 12:18:01,0.02,0.14,0.00,24.08,26.77,30.05,14.36,48.23,1010.75,2032.01,3440.02,3064.04,3509.01,600.18,590.51,4.36,0000 0000 0000 0000 000000
2017-04-30 12:23:02,0.02,0.15,0.00,24.05,26.77,30.05,14.37,48.25,1010.75,2032.01,3439.47,3063.99,3508.67,600.20,590.55,4.41,0000 0000 0000 0000 000000
2017-04-30 12:28:03,0.03,0.15,0.00,24.11,26.75,30.04,14.26,48.23,1010.63,2032.02,3438.98,3063.58,3508.04,599.90,590.27,4.46,0000 0000 0000 0000 000000
2017-04-30 12:33:05,0.03,0.15,0.00,24.13,26.75,30.04,14.36,48.23,1010.49,2032.05,3438.20,3063.05,3507.92,600.43,590.56,4.51,0000 0000 0000 0000 000000
2017-04-30 12:38:06,0.02,0.15,0.00,24.07,26.75,30.04,14.34,48.17,1010.33,2032.04,3437.65,3062.92,3507.14,599.95,590.23,4.56,0000 0000 0000 0000 000000
2017-04-30 12:43:08,0.03,0.15,0.00,24.07,26.73,30.03,14.48,48.30,1010.31,2032.08,3437.02,3062.23,3506.99,600.34,590.46,4.61,0000 0000 0000 0000 000000
2017-04-30 12:48:09,0.04,0.15,0.00,24.19,26.72,30.03,14.35,48.13,1010.28,2032.16,3436.41,3062.00,3506.44,599.95,589.90,4.66,0000 0000 0000 0000 000000
2017-04-30 12:53:10,0.02,0.15,0.00,24.17,26.72,30.03,14.35,48.13,1010.27,2032.29,3435.93,3061.90,3506.00,599.91,589.90,4.71,0000 0000 0000 0000 000000
2017-04-30 12:58:11,0.05,0.16,0.00,24.08,26.72,30.03,14.36,48.13,1010.27,2032.38,3435.11,3061.13,3505.74,600.16,590.33,4.76,0000 0000 0000 0000 000000
2017-04-30 13:03:12,0.02,0.16,0.00,24.21,26.71,30.02,14.38,48.11,1010.27,2032.53,3434.42,3060.98,3505.03,600.21,590.02,4.81,0000 0000 0000 0000 000000